Volver al catálogo

FENGYUN 1C DEB

LostSSO
NORAD 37922·DEBRIS·🇨🇳 China

Lanzado May 10, 1999 desde Taiyuan Satellite Launch Center

Loading…

Próximos Pases (próximas 24 horas)

TLE

ObsoletoSource: Space-Track

Época: Jan 17, 2019, 21:25 UTC

1 37922U 99025ENX 19017.89267021  .00000691  00000-0  41274-3 0  9998
2 37922  99.1062  55.2395 0071994 274.9223  84.3730 14.09368946516388

Sigue FENGYUN 1C DEB en tiempo real con AllMySat

Download on the App Store